Weather History for Ocala, FL

Change the Weather History Date:

Monday, August 26, 2013

  Actual Average Record
Temperature  
Mean Temperature 79 °F -  
Max Temperature 87 °F 88 °F 93 °F (1998)
Min Temperature 71 °F 69 °F 64 °F (1997)
Cooling Degree Days 14    
Growing Degree Days 29 (Base 50)    
Moisture  
Dew Point 69 °F    
Average Humidity 75    
Maximum Humidity 83    
Minimum Humidity 55    
Precipitation  
Precipitation 0.00 in - - ()
Sea Level Pressure  
Sea Level Pressure 30.13 in    
Wind  
Wind Speed 5 mph (NE)    
Max Wind Speed 10 mph    
Max Gust Speed 17 mph    
Visibility 10 miles    
Events      
Averages and records for this station are not official NWS values.
T = Trace of Precipitation, MM = Missing Value Source: NWS Daily Summary

Daily Weather History Graph

Daily Weather History Graph

Search for Another Location

Airport:

Trip Planner

Search our weather history database for the weather conditions in past years. The results will help you decide how hot, cold, wet, or windy it might be!

Date:

Astronomy

Aug. 26, 2013 Rise Set
Actual Time 7:03 AM EDT 7:57 PM EDT
Civil Twilight 6:39 AM EDT 8:21 PM EDT
Nautical Twilight 6:10 AM EDT 8:50 PM EDT
Astronomical Twilight 5:40 AM EDT 9:19 PM EDT
Moon 11:39 PM EDT (8/26) 12:32 PM EDT (8/26)
Length of Visible Light 13h 42m
Length of Day
12h 53m
Waning Gibbous, 67% of the Moon is Illuminated
Aug 26
Waning Gibbous
Aug 28
Last Quarter
Sep 5
New
Sep 12
First Quarter
Sep 19
Full

Hourly Weather History & Observations

Time (EDT) Temp. Heat Index Dew Point Humidity Pressure Visibility Wind Dir Wind Speed Gust Speed Precip Events Conditions
12:15 AM 73.4 °F - 68.0 °F 83% 30.18 in 10.0 mi NNE 4.6 mph - N/A   Clear
12:35 AM 73.4 °F - 68.0 °F 83% 30.18 in 10.0 mi NNE 3.5 mph - N/A   Clear
12:55 AM 73.4 °F - 68.0 °F 83% 30.17 in 10.0 mi NNE 4.6 mph - N/A   Clear
1:15 AM 73.4 °F - 68.0 °F 83% 30.17 in 10.0 mi NE 4.6 mph - N/A   Clear
1:35 AM 73.4 °F - 68.0 °F 83% 30.17 in 10.0 mi NNE 4.6 mph - N/A   Clear
1:55 AM 73.4 °F - 68.0 °F 83% 30.16 in 10.0 mi NNE 4.6 mph - N/A   Clear
2:15 AM 73.4 °F - 68.0 °F 83% 30.15 in 10.0 mi NE 3.5 mph - N/A   Clear
2:35 AM 73.4 °F - 68.0 °F 83% 30.15 in 10.0 mi NNE 3.5 mph - N/A   Scattered Clouds
2:55 AM 73.4 °F - 68.0 °F 83% 30.14 in 10.0 mi NNE 3.5 mph - N/A   Scattered Clouds
3:15 AM 73.4 °F - 68.0 °F 83% 30.13 in 10.0 mi NNE 4.6 mph - N/A   Partly Cloudy
3:35 AM 73.4 °F - 68.0 °F 83% 30.13 in 10.0 mi North 5.8 mph - N/A   Clear
3:55 AM 73.4 °F - 66.2 °F 78% 30.14 in 10.0 mi North 5.8 mph - N/A   Partly Cloudy
4:15 AM 71.6 °F - 66.2 °F 83% 30.13 in 10.0 mi North 5.8 mph - N/A   Mostly Cloudy
4:35 AM 73.4 °F - 66.2 °F 78% 30.13 in 10.0 mi NNE 4.6 mph - N/A   Overcast
4:55 AM 73.4 °F - 68.0 °F 83% 30.13 in 10.0 mi NNE 4.6 mph - N/A   Mostly Cloudy
5:15 AM 73.4 °F - 66.2 °F 78% 30.13 in 10.0 mi NNE 5.8 mph - N/A   Scattered Clouds
5:35 AM 73.4 °F - 66.2 °F 78% 30.13 in 10.0 mi NNE 4.6 mph - N/A   Partly Cloudy
5:55 AM 73.4 °F - 66.2 °F 78% 30.13 in 10.0 mi NE 4.6 mph - N/A   Partly Cloudy
6:15 AM 73.4 °F - 68.0 °F 83% 30.13 in 10.0 mi NNE 5.8 mph - N/A   Partly Cloudy
6:35 AM 73.4 °F - 68.0 °F 83% 30.13 in 10.0 mi NNE 4.6 mph - N/A   Scattered Clouds
6:50 AM 73.4 °F - 68.0 °F 83% 30.13 in 10.0 mi NNE 5.8 mph - N/A   Mostly Cloudy
7:29 AM 73.4 °F - 68.0 °F 83% 30.14 in 10.0 mi NNE 5.8 mph - N/A   Partly Cloudy
7:50 AM 73.4 °F - 68.0 °F 83% 30.15 in 10.0 mi NNE 5.8 mph - N/A   Partly Cloudy
8:50 AM 77.0 °F - 69.8 °F 78% 30.15 in 10.0 mi NNE 4.6 mph - N/A   Partly Cloudy
9:50 AM 80.6 °F 84.6 °F 71.6 °F 74% 30.15 in 10.0 mi NE 8.1 mph - N/A   Scattered Clouds
10:50 AM 82.4 °F 87.2 °F 71.6 °F 70% 30.16 in 10.0 mi NE 5.8 mph - N/A   Mostly Cloudy
11:50 AM 84.2 °F 89.6 °F 71.6 °F 66% 30.15 in 10.0 mi NE 6.9 mph - N/A   Mostly Cloudy
12:50 PM 87.8 °F 93.8 °F 71.6 °F 58% 30.14 in 10.0 mi NNE 6.9 mph - N/A   Mostly Cloudy
1:50 PM 87.8 °F 93.8 °F 71.6 °F 58% 30.13 in 10.0 mi NE 10.4 mph 16.1 mph N/A   Mostly Cloudy
2:50 PM 87.8 °F 92.6 °F 69.8 °F 55% 30.10 in 10.0 mi NE 5.8 mph 17.3 mph N/A   Scattered Clouds
3:50 PM 87.8 °F 92.6 °F 69.8 °F 55% 30.09 in 10.0 mi ENE 9.2 mph 17.3 mph N/A   Scattered Clouds
4:50 PM 84.2 °F 86.6 °F 66.2 °F 55% 30.08 in 10.0 mi NE 6.9 mph - N/A   Scattered Clouds
5:50 PM 84.2 °F 88.4 °F 69.8 °F 62% 30.06 in 10.0 mi ENE 8.1 mph 17.3 mph N/A   Partly Cloudy
6:50 PM 84.2 °F 88.4 °F 69.8 °F 62% 30.05 in 10.0 mi ENE 10.4 mph - N/A   Partly Cloudy
8:15 PM 80.6 °F 83.9 °F 69.8 °F 70% 30.08 in 10.0 mi ENE 6.9 mph - N/A   Clear
8:35 PM 80.6 °F 83.9 °F 69.8 °F 70% 30.08 in 10.0 mi ENE 5.8 mph - N/A   Partly Cloudy
8:55 PM 80.6 °F 83.9 °F 69.8 °F 70% 30.08 in 10.0 mi NE 3.5 mph - N/A   Clear
9:15 PM 78.8 °F - 69.8 °F 74% 30.09 in 10.0 mi ENE 4.6 mph - N/A   Partly Cloudy
9:35 PM 78.8 °F - 69.8 °F 74% 30.10 in 10.0 mi NE 4.6 mph - N/A   Clear
9:55 PM 78.8 °F - 69.8 °F 74% 30.11 in 10.0 mi NE 4.6 mph - N/A   Scattered Clouds
10:15 PM 78.8 °F - 69.8 °F 74% 30.11 in 10.0 mi NE 3.5 mph - N/A   Scattered Clouds
10:35 PM 78.8 °F - 68.0 °F 69% 30.11 in 10.0 mi ENE 5.8 mph - N/A   Clear
10:55 PM 77.0 °F - 68.0 °F 74% 30.11 in 10.0 mi ENE 4.6 mph - N/A   Partly Cloudy
11:15 PM 77.0 °F - 68.0 °F 74% 30.11 in 10.0 mi ENE 3.5 mph - N/A   Partly Cloudy
11:35 PM 75.2 °F - 68.0 °F 78% 30.11 in 10.0 mi Calm Calm - N/A   Partly Cloudy
11:55 PM 75.2 °F - 68.0 °F 78% 30.11 in 10.0 mi NE 3.5 mph - N/A   Clear